Latest Weather Observations for Mallacoota

IDV60801

Issued at 6:02 pm EDT Monday 30 March 2015 (issued every 30 minutes, with the page automatically refreshed every 10 minutes)

About weather observations | Map of weather stations | Latest weather observations for VIC | Other Formats
Station Details ID: 084084 Name: MALLACOOTA Lat: -37.60 Lon: 149.73 Height: 22.0 m
Data from the previous 72 hours. | See also: Recent months at Mallacoota
Date/Time
EDT
Temp
°C
App
Temp
°C
Dew
Point
Rel
Hum
%
Delta-T
°C
Wind Press
QNH
hPa
Press
MSL
hPa
Rain
since 9 am
mm
Dir
 
Spd
km/h
Gust
km/h
Spd
kts
Gust
kts
30/06:00pm 19.1 19.0 15.0 77 2.4 SE 9 13 5 7 1024.1 1024.1 0.0
30/05:30pm 19.7 19.6 14.9 74 2.8 ESE 9 11 5 6 1023.7 - 0.0
30/05:00pm 19.9 19.5 15.1 74 2.8 ESE 11 13 6 7 1023.4 - 0.0
30/04:30pm 20.0 19.5 15.0 73 2.9 SE 11 15 6 8 1023.2 - 0.0
30/04:00pm 20.4 20.1 15.4 73 3.0 ESE 11 15 6 8 1023.2 - 0.0
30/03:30pm 20.2 19.8 15.2 73 3.0 ESE 11 15 6 8 1023.1 - 0.0
30/03:00pm 20.3 19.9 15.1 72 3.1 ESE 11 15 6 8 1023.0 1023.0 0.0
30/02:30pm 20.5 20.3 15.7 74 2.9 ESE 11 15 6 8 1023.0 - 0.0
30/02:00pm 20.1 19.7 15.1 73 2.9 E 11 13 6 7 1023.1 - 0.0
30/01:30pm 20.6 20.3 15.4 72 3.1 ESE 11 15 6 8 1023.5 - 0.0
30/01:00pm 20.0 19.3 14.4 70 3.3 ESE 11 15 6 8 1023.8 - 0.0
30/12:30pm 19.8 18.5 13.7 68 3.5 ESE 13 17 7 9 1024.1 - 0.0
30/12:00pm 19.4 17.8 12.7 65 3.8 E 13 17 7 9 1024.1 1024.1 0.0
30/11:30am 20.5 19.3 12.7 61 4.4 ENE 11 15 6 8 1024.4 - 0.0
30/11:00am 20.6 18.3 13.1 62 4.3 N 17 22 9 12 1024.6 - 0.0
30/10:30am 19.3 18.0 12.6 65 3.7 NNW 11 17 6 9 1024.8 - 0.0
30/10:00am 18.0 17.0 12.2 69 3.2 NNW 9 15 5 8 1024.9 - 0.0
30/09:30am 16.0 14.4 11.6 75 2.4 NW 11 17 6 9 1024.8 - 0.0
30/09:00am 14.4 12.6 11.0 80 1.8 NW 11 15 6 8 1024.6 1024.6 0.0
30/08:30am 13.0 11.1 10.5 85 1.3 WNW 11 15 6 8 1024.5 - 0.0
30/08:00am 11.6 9.2 9.9 89 0.9 WNW 13 15 7 8 1024.1 - 0.0
30/07:30am 11.0 8.8 9.3 89 0.9 WNW 11 15 6 8 1023.8 - 0.0
30/07:00am 10.9 8.7 9.2 89 0.8 WNW 11 17 6 9 1023.6 - 0.0
30/06:30am 10.8 8.5 9.1 89 0.8 WNW 11 17 6 9 1023.2 - 0.0
30/06:00am 11.0 8.8 9.3 89 0.8 WNW 11 17 6 9 1023.1 1023.1 0.0
30/05:30am 11.1 8.9 9.4 89 0.9 WNW 11 15 6 8 1023.0 - 0.0
30/05:00am 11.3 8.8 9.6 89 0.9 WNW 13 17 7 9 1022.9 - 0.0
30/04:30am 11.3 9.2 9.6 89 0.9 NW 11 13 6 7 1022.9 - 0.0
30/04:00am 11.6 9.5 9.7 88 1.0 WNW 11 15 6 8 1023.1 - 0.0
30/03:30am 11.7 9.2 9.8 88 1.0 WNW 13 15 7 8 1023.1 - 0.0
30/03:00am 11.9 9.8 9.8 87 1.1 WNW 11 13 6 7 1023.3 1023.3 0.0
30/02:30am 12.2 10.2 10.1 87 1.1 WNW 11 15 6 8 1023.6 - 0.0
30/02:00am 12.3 10.2 9.9 85 1.2 WNW 11 13 6 7 1023.7 - 0.0
30/01:30am 12.7 10.7 10.1 84 1.3 WNW 11 17 6 9 1023.7 - 0.0
30/01:00am 12.9 10.9 10.1 83 1.4 WNW 11 13 6 7 1023.7 - 0.0
30/12:30am 13.2 11.3 10.4 83 1.5 WNW 11 13 6 7 1023.7 - 0.0
30/12:00am 13.5 11.7 10.7 83 1.5 WNW 11 13 6 7 1023.9 1023.9 0.0
 
Date/Time
EDT
Temp
°C
App
Temp
°C
Dew
Point
Rel
Hum
%
Delta-T
°C
Wind Press
QNH
hPa
Press
MSL
hPa
Rain
since 9 am
mm
Dir
 
Spd
km/h
Gust
km/h
Spd
kts
Gust
kts
29/11:30pm 13.6 11.7 10.6 82 1.6 WNW 11 13 6 7 1024.0 - 0.0
29/11:00pm 13.8 12.0 10.8 82 1.6 W 11 13 6 7 1024.1 - 0.0
29/10:30pm 13.6 12.1 10.6 82 1.6 W 9 13 5 7 1024.3 - 0.0
29/10:00pm 13.9 12.6 11.1 83 1.5 W 9 11 5 6 1024.2 - 0.0
29/09:30pm 13.7 12.8 10.7 82 1.6 WNW 6 9 3 5 1023.9 - 0.0
29/09:00pm 14.1 12.6 10.7 80 1.8 W 9 11 5 6 1023.4 1023.4 0.0
29/08:30pm 14.7 13.3 10.9 78 2.0 WSW 9 11 5 6 1023.1 - 0.0
29/08:00pm 14.7 13.7 10.9 78 2.0 SW 7 9 4 5 1022.7 - 0.0
29/07:30pm 15.0 13.9 10.8 76 2.2 SW 7 11 4 6 1022.2 - 0.0
29/07:00pm 15.9 15.4 10.9 72 2.7 S 4 6 2 3 1021.8 - 0.0
29/06:30pm 17.6 17.3 11.4 67 3.4 SE 4 7 2 4 1021.4 - 0.0
29/06:00pm 18.2 16.6 11.5 65 3.7 S 11 13 6 7 1021.2 1021.1 0.0
29/05:30pm 18.5 16.2 11.8 65 3.7 S 15 19 8 10 1020.9 - 0.0
29/05:00pm 18.7 16.2 12.2 66 3.6 S 17 20 9 11 1020.8 - 0.0
29/04:30pm 18.8 16.7 12.3 66 3.6 S 15 19 8 10 1020.9 - 0.0
29/04:00pm 19.4 18.4 12.2 63 4.0 SSE 9 13 5 7 1021.0 - 0.0
29/03:30pm 20.0 19.2 13.0 64 4.0 SE 9 15 5 8 1021.1 - 0.0
29/03:00pm 19.3 17.3 11.6 61 4.2 SE 13 15 7 8 1021.1 1021.0 0.0
29/02:30pm 19.2 17.3 11.7 62 4.1 SE 13 15 7 8 1021.3 - 0.0
29/02:00pm 19.3 18.0 12.6 65 3.8 SE 11 15 6 8 1021.4 - 0.0
29/01:30pm 19.0 17.6 12.3 65 3.7 ESE 11 13 6 7 1021.8 - 0.0
29/01:00pm 18.6 17.1 11.9 65 3.7 SE 11 15 6 8 1022.3 - 0.0
29/12:30pm 19.3 18.5 13.0 67 3.6 SE 9 13 5 7 1022.6 - 0.0
29/12:00pm 18.6 17.3 12.6 68 3.3 E 11 13 6 7 1022.5 1022.5 0.0
29/11:30am 17.8 16.9 12.5 71 2.9 S 9 13 5 7 1022.8 - 0.0
29/11:00am 17.3 15.4 11.8 70 3.0 S 13 17 7 9 1023.1 - 0.0
29/10:30am 17.7 16.5 11.7 68 3.3 SSW 9 15 5 8 1023.3 - 0.0
29/10:00am 16.6 15.4 11.5 72 2.8 WSW 9 13 5 7 1023.1 - 0.0
29/09:30am 14.9 13.9 10.9 77 2.1 WNW 7 11 4 6 1023.0 - 0.0
29/09:00am 13.0 11.0 10.2 83 1.4 WNW 11 13 6 7 1022.6 1022.6 0.0
29/08:30am 11.3 9.2 9.6 89 0.9 WNW 11 13 6 7 1022.1 - 0.0
29/08:00am 10.4 7.8 9.2 92 0.6 WNW 13 17 7 9 1021.8 - 0.0
29/07:30am 8.8 5.8 7.6 92 0.6 WNW 13 17 7 9 1021.6 - 0.0
29/07:00am 8.3 5.9 7.1 92 0.6 WNW 9 13 5 7 1021.3 - 0.0
29/06:30am 8.4 5.7 7.2 92 0.6 WNW 11 13 6 7 1020.9 - 0.0
29/06:00am 8.8 6.1 7.4 91 0.7 WNW 11 15 6 8 1020.7 1020.6 0.0
29/05:30am 9.0 6.0 7.6 91 0.7 WNW 13 17 7 9 1020.7 - 0.0
29/05:00am 9.5 6.6 8.1 91 0.7 WNW 13 15 7 8 1020.5 - 0.0
29/04:30am 9.8 7.0 8.4 91 0.7 NW 13 17 7 9 1020.5 - 0.0
29/04:00am 9.8 7.0 8.4 91 0.7 NW 13 17 7 9 1020.6 - 0.0
29/03:30am 9.8 7.0 8.4 91 0.7 NW 13 17 7 9 1020.9 - 0.0
29/03:00am 10.2 7.5 8.8 91 0.7 WNW 13 17 7 9 1021.3 1021.2 0.0
29/02:30am 10.0 7.2 8.4 90 0.8 NW 13 17 7 9 1021.6 - 0.0
29/02:00am 9.9 7.4 8.2 89 0.8 WNW 11 15 6 8 1021.9 - 0.0
29/01:30am 10.3 7.9 8.6 89 0.8 WNW 11 15 6 8 1022.1 - 0.0
29/01:00am 10.3 7.8 8.4 88 0.9 WNW 11 13 6 7 1022.3 - 0.0
29/12:30am 10.6 8.6 8.5 87 1.0 WNW 9 13 5 7 1022.4 - 0.0
29/12:00am 11.0 8.3 9.1 88 0.9 WNW 13 17 7 9 1022.8 1022.8 0.0
 
Date/Time
EDT
Temp
°C
App
Temp
°C
Dew
Point
Rel
Hum
%
Delta-T
°C
Wind Press
QNH
hPa
Press
MSL
hPa
Rain
since 9 am
mm
Dir
 
Spd
km/h
Gust
km/h
Spd
kts
Gust
kts
28/11:30pm 10.7 8.3 8.8 88 0.9 WNW 11 13 6 7 1022.9 - 0.0
28/11:00pm 11.1 8.8 9.0 87 1.0 WNW 11 13 6 7 1023.0 - 0.0
28/10:30pm 11.1 9.2 9.0 87 1.0 WNW 9 13 5 7 1023.3 - 0.0
28/10:00pm 11.3 9.4 8.9 85 1.2 NW 9 11 5 6 1023.4 - 0.0
28/09:30pm 11.5 9.5 8.7 83 1.4 NW 9 11 5 6 1023.4 - 0.0
28/09:00pm 12.0 10.0 8.8 81 1.6 WNW 9 11 5 6 1023.2 1023.2 0.0
28/08:30pm 12.7 10.8 9.2 79 1.8 NW 9 13 5 7 1023.0 - 0.0
28/08:00pm 12.9 11.3 8.6 75 2.1 WNW 7 9 4 5 1023.0 - 0.0
28/07:30pm 13.5 11.9 8.6 72 2.5 W 7 9 4 5 1022.5 - 0.0
28/07:00pm 15.1 13.5 8.8 66 3.2 WSW 7 11 4 6 1022.3 - 0.0
28/06:30pm 16.1 13.4 8.8 62 3.7 SW 13 22 7 12 1022.2 - 0.0
28/06:00pm 16.8 13.4 9.0 60 4.0 SSW 17 26 9 14 1021.9 1021.8 0.0
28/05:30pm 17.6 14.3 9.5 59 4.2 SSW 17 26 9 14 1021.8 - 0.0
28/05:00pm 18.2 14.5 9.5 57 4.6 SSW 19 28 10 15 1021.7 - 0.0
28/04:30pm 18.3 14.7 10.4 60 4.2 SSW 20 30 11 16 1021.8 - 0.0
28/04:00pm 18.9 15.7 9.9 56 4.8 SSW 17 24 9 13 1021.7 - 0.0
28/03:30pm 19.3 15.4 9.5 53 5.2 SW 20 32 11 17 1021.9 - 0.0
28/03:00pm 19.8 16.3 10.2 54 5.1 WSW 19 30 10 16 1021.9 1021.8 0.0
28/02:30pm 19.4 15.5 9.3 52 5.3 WSW 20 32 11 17 1022.0 - 0.0
28/02:00pm 19.2 15.0 9.7 54 5.0 SW 22 35 12 19 1022.1 - 0.0
28/01:30pm 20.1 17.1 10.8 55 5.1 SW 17 28 9 15 1022.4 - 0.0
28/01:00pm 19.3 16.1 10.0 55 5.0 WSW 17 28 9 15 1022.8 - 0.0
28/12:30pm 19.0 15.4 10.0 56 4.8 SW 19 41 10 22 1023.1 - 0.0
28/12:00pm 17.3 13.5 9.7 61 4.0 SW 20 30 11 16 1023.4 1023.4 0.0
28/11:30am 16.9 13.3 9.8 63 3.7 WSW 19 33 10 18 1023.5 - 0.0
28/11:00am 16.6 14.3 10.5 67 3.2 WSW 13 24 7 13 1023.6 - 0.0
28/10:30am 15.6 12.7 9.7 68 3.1 WSW 15 24 8 13 1023.6 - 0.0
28/10:00am 15.0 12.5 9.8 71 2.7 W 13 22 7 12 1023.5 - 0.0
28/09:30am 14.3 10.5 9.1 71 2.6 W 19 28 10 15 1023.2 - 0.0
28/09:00am 14.0 10.6 9.2 73 2.4 W 17 28 9 15 1022.9 1022.9 2.6
28/08:30am 13.4 10.0 9.1 75 2.2 W 17 32 9 17 1022.5 - 2.6
28/08:00am 13.2 9.8 9.1 76 2.1 W 17 28 9 15 1022.4 - 2.6
28/07:30am 13.1 9.7 9.2 77 2.0 W 17 28 9 15 1022.0 - 2.6
28/07:00am 13.0 9.7 9.4 79 1.8 W 17 28 9 15 1021.6 - 2.6
28/06:30am 12.8 10.1 10.2 84 1.3 W 15 26 8 14 1021.4 - 2.6
28/06:00am 12.3 10.0 10.4 88 1.0 W 13 20 7 11 1021.3 1021.2 2.6
28/05:30am 12.1 9.4 10.5 90 0.8 W 15 22 8 12 1021.1 - 2.6
28/05:00am 11.9 10.4 10.5 91 0.7 W 9 17 5 9 1020.8 - 2.6
28/04:30am 11.9 10.0 10.5 91 0.7 WSW 11 17 6 9 1020.8 - 2.2
28/04:00am 12.1 9.8 10.3 89 0.9 WSW 13 26 7 14 1020.8 - 1.6
28/03:30am 12.5 8.8 10.2 86 1.2 W 20 33 11 18 1020.5 - 0.6
28/03:00am 13.0 9.3 10.0 82 1.5 W 20 39 11 21 1020.5 1020.4 0.2
28/02:30am 13.8 10.1 9.6 76 2.2 W 19 32 10 17 1020.4 - 0.2
28/02:00am 13.7 9.5 9.6 76 2.1 W 22 39 12 21 1020.0 - 0.2
28/01:30am 13.5 9.9 9.9 79 1.9 W 19 39 10 21 1020.0 - 0.2
28/01:00am 13.1 9.0 10.1 82 1.5 W 22 37 12 20 1020.0 - 0.2
28/12:30am 13.1 9.4 10.3 83 1.5 W 20 39 11 21 1019.9 - 0.2
28/12:00am 13.3 9.9 10.5 83 1.5 W 19 32 10 17 1019.8 1019.7 0.2
 
Date/Time
EDT
Temp
°C
App
Temp
°C
Dew
Point
Rel
Hum
%
Delta-T
°C
Wind Press
QNH
hPa
Press
MSL
hPa
Rain
since 9 am
mm
Dir
 
Spd
km/h
Gust
km/h
Spd
kts
Gust
kts
27/11:30pm 13.2 10.6 10.7 85 1.3 W 15 24 8 13 1019.9 - 0.0
27/11:00pm 13.5 10.1 10.7 83 1.5 WSW 19 33 10 18 1019.7 - 0.0
27/10:30pm 13.8 10.8 10.8 82 1.6 W 17 26 9 14 1019.6 - 0.0
27/10:00pm 13.7 10.3 10.7 82 1.6 W 19 32 10 17 1019.5 - 0.0
27/09:30pm 14.4 10.8 10.0 75 2.3 W 19 35 10 19 1019.2 - 0.0
27/09:00pm 15.1 11.3 9.7 70 2.8 W 20 33 11 18 1018.8 1018.7 0.0
27/08:30pm 15.9 11.6 9.3 65 3.4 WSW 22 44 12 24 1018.2 - 0.0
27/08:00pm 16.0 12.0 9.2 64 3.5 WSW 20 44 11 24 1017.8 - 0.0
27/07:30pm 16.0 12.0 9.2 64 3.5 W 20 46 11 25 1017.3 - 0.0
27/07:00pm 15.9 11.6 9.3 65 3.4 W 22 41 12 22 1016.8 - 0.0
27/06:30pm 16.3 12.4 9.3 63 3.6 W 20 37 11 20 1016.1 - 0.0

Other Formats:

Comma delimited format used in spreadsheet applications
http://www.bom.gov.au/fwo/IDV60801/IDV60801.94935.axf

JavaScript Object Notation format (JSON) in row-major order
http://www.bom.gov.au/fwo/IDV60801/IDV60801.94935.json